星链-3288 (STARLINK-3288 )

导读 | 星芒AI

STARLINK-3288 是 SpaceX Starlink 项目中的一颗低轨道通信卫星,属于第三代星链卫星群。该卫星旨在为全球用户提供高速、低延迟的互联网服务,尤其在偏远和网络覆盖不足的地区。它采用先进的推进系统和可展开的太阳能板,具备自主避障能力,以减少与其他卫星或太空碎片的碰撞风险。STARLINK-3288 的发射进一步增强了 Starlink 网络的覆盖范围和连接稳定性,为全球用户带来更优质的互联网体验。

基本信息
目录编号:
50160
目录名称:
STARLINK-3288
国际标识:
2021-125E
轨道中心:
EARTH
卫星名称:
星链-3288
卫星全名:
星链-3288 (STARLINK-3288 )
卫星状态:
已陨落 最后检测时间 2024-12-21
发射日期:
2021-12-18 UTC
国别 :
美国 (US)
星等 :
--
轨道信息
数据来源 国际轨道数据
星历时间: 2024-12-22T00:02:02+0800
轨道信息已过期317天
半长轴: 6524.656km
偏心率: 0.0001266
轨道倾角: 53.190°
近地点辐角 161.067°
升交点赤经 66.820°
平近点角 243.117°
近地点: 145.694km
远地点: 147.348km
周期: 87.417分钟
每日圈数: 16.472762
详细信息
固有亮度:
5
最大亮度:
2.5
卫星平台:
Starlink v1.5
覆盖范围:
全球
运营商:
太空探索技术公司
运营商所在国:
美国
制造商(研发单位):
太空探索技术公司
制造商所在国:
美国
使用方式:
暂无
卫星简介
星链(Starlink)计划是由太空探索技术公司(SpaceX)提出的一个巨型低轨卫星互联网星座项目,计划在2019年至2024年间在太空搭建由约1.2万颗卫星组成的“星链”网络,其中1584颗将部署在地球上空550千米处的近地轨道,并从2020年开始工作。该卫星仍在工作。